Location: Lafig�re
(44.4503°N, 4.0357°E)
Time: 07:46:16
(UTC+00:00)

deb Explorer IX - Pass Details

Date: 22 January 2021
Orbit: 537 x 1103 km, 38.8° (Epoch: 23 February)

Event Time Altitude Azimuth Distance (km) Brightness Sun altitude
Rises 20:39:57 0° 263° (W) 3,376 ? -42.5°
Reaches altitude 10° 20:42:45 10° 257° (WSW) 2,341 ? -43.0°
Enters shadow 20:42:59 11° 256° (WSW) 2,257 ? -43.0°
